User: anonymous   Login
Location: Chantarel
(45.1638°N, 1.7873°E)
Time: 14:46:08
(UTC+00:00)
Language:

CZ-4 R/B - Orbit

View from above orbital plane
View from above orbital plane
View from above satellite
View from above satellite

Ground track
Ground track

The orbit data is extracted from the following two-line orbital elements,

1 29507U 06046C   21129.08868704  .00001096  00000-0  89050-4 0  9997
2 29507  97.7325 155.1830 0047913 147.1227 213.2993 15.00827493794254
Epoch (UTC): 09 May 2021 02:07:42
Eccentricity: 0.0047913
inclination: 97.7325°
perigee height: 531 km
apogee height: 597 km
right ascension of ascending node: 155.1830°
argument of perigee: 147.1227°
revolutions per day: 15.00827493
mean anomaly at epoch: 213.2993°
orbit number at epoch: 79425

The dashed part of the orbit path shows where the satellite is in the earth's shadow,  

DLR